Temp
-8 -9 -10 -9 -9 -10 -10 -9 -9 -9 -9 -8 -8 -8 -8 -8 -8 -8 -8 -8 -8 -9 -8 -9 -9 -9 -9 -9 -8 -8 -8 -8 -8 -8 -8 -8 -8 -9 -8 -8 -8 -8 -9 -9 -9 -8 -9 -9 -9
-8 -8 -10 -9 -9 -9 -10 -9 -9 -9 -9 -9 -9 -8 -8 -9 -9 -8 -8 -8 -8 -8 -8 -8 -8 -9 -9 -9 -9 -9 -9 -9 -9 -9 -9 -9 -9 -9 -9 -9 -9 -9 -9 -9 -8 -8 -9 -9 -8
-8 -9 -9 -10 -9 -9 -10 -9 -9 -10 -10 -9 -10 -9 -9 -9 -9 -8 -8 -8 -8 -8 -8 -8 -8 -9 -9 -9 -10 -10 -9 -9 -9 -9 -9 -9 -9 -9 -9 -9 -9 -9 -9 -9 -9 -9 -9 -9 -9
-9 -9 -10 -10 -10 -9 -9 -9 -9 -9 -10 -10 -10 -9 -9 -9 -9 -9 -8 -8 -9 -8 -8 -8 -9 -9 -9 -9 -9 -9 -9 -9 -9 -9 -9 -10 -10 -10 -9 -9 -9 -9 -9 -9 -9 -9 -9 -9 -9
-9 -9 -10 -10 -10 -9 -9 -9 -10 -10 -10 -10 -10 -10 -10 -10 -9 -9 -9 -9 -9 -9 -9 -9 -9 -9 -9 -9 -9 -9 -10 -10 -10 -10 -9 -10 -10 -10 -10 -9 -9 -9 -9 -9 -9 -9 -9 -9 -10
-9 -10 -10 -9 -10 -9 -10 -10 -10 -11 -11 -11 -10 -10 -10 -10 -10 -10 -10 -10 -10 -9 -9 -9 -9 -9 -9 -8 -8 -9 -9 -10 -10 -10 -10 -10 -10 -10 -10 -10 -10 -10 -10 -10 -10 -10 -10 -10 -10
-10 -10 -10 -10 -10 -10 -10 -10 -10 -11 -11 -11 -10 -10 -10 -9 -10 -10 -11 -10 -10 -10 -10 -9 -9 -8 -8 -8 -9 -9 -10 -11 -11 -11 -10 -10 -10 -10 -10 -10 -10 -10 -10 -10 -10 -10 -11 -11 -11
-9 -9 -10 -10 -10 -10 -10 -11 -10 -11 -11 -11 -11 -10 -10 -10 -10 -11 -11 -11 -10 -11 -10 -10 -10 -9 -9 -9 -9 -10 -12 -12 -11 -11 -11 -11 -10 -10 -10 -10 -10 -10 -11 -11 -11 -11 -11 -11 -11
-10 -10 -10 -10 -10 -10 -10 -10 -10 -10 -11 -11 -11 -11 -11 -11 -11 -11 -11 -11 -11 -11 -10 -11 -11 -10 -10 -9 -10 -11 -11 -12 -11 -12 -11 -11 -11 -11 -11 -11 -11 -11 -11 -11 -11 -11 -11 -11 -11
-10 -11 -10 -10 -10 -10 -10 -10 -10 -10 -11 -11 -11 -11 -11 -11 -11 -11 -11 -11 -11 -11 -11 -11 -11 -11 -11 -11 -11 -11 -11 -11 -11 -11 -12 -12 -12 -12 -11 -12 -12 -12 -12 -12 -12 -12 -11 -11 -11
-11 -11 -10 -10 -11 -10 -10 -11 -11 -11 -11 -11 -11 -11 -11 -11 -11 -11 -12 -11 -11 -11 -10 -11 -11 -11 -11 -11 -11 -11 -12 -11 -11 -11 -12 -12 -12 -12 -13 -12 -12 -12 -12 -12 -12 -12 -12 -12 -11
-11 -11 -11 -11 -11 -11 -11 -11 -11 -11 -11 -11 -11 -11 -11 -11 -11 -11 -11 -11 -11 -11 -11 -11 -11 -11 -11 -11 -11 -11 -12 -11 -11 -11 -11 -11 -12 -12 -12 -12 -12 -12 -12 -13 -12 -12 -12 -11 -11
-11 -11 -11 -11 -11 -11 -11 -11 -11 -11 -11 -11 -11 -11 -11 -11 -11 -11 -11 -11 -11 -11 -11 -11 -11 -11 -12 -12 -11 -11 -12 -12 -12 -11 -11 -11 -11 -12 -12 -12 -12 -12 -12 -12 -12 -12 -12 -12 -12
-11 -11 -11 -11 -11 -11 -10 -11 -11 -11 -11 -11 -11 -11 -11 -11 -11 -12 -12 -12 -12 -12 -12 -12 -12 -12 -12 -12 -12 -12 -11 -11 -11 -11 -11 -11 -11 -11 -11 -11 -12 -11 -12 -13 -12 -13 -12 -12 -12
-11 -11 -11 -11 -11 -11 -11 -11 -11 -11 -11 -11 -11 -11 -11 -11 -11 -12 -12 -12 -12 -12 -12 -12 -12 -12 -12 -12 -12 -12 -12 -12 -12 -12 -12 -11 -12 -12 -12 -12 -13 -12 -12 -12 -12 -12 -12 -12 -12
-11 -11 -11 -11 -11 -11 -11 -11 -11 -11 -11 -11 -11 -12 -12 -11 -11 -11 -12 -13 -13 -12 -12 -13 -13 -13 -12 -13 -13 -13 -13 -12 -12 -12 -13 -12 -12 -12 -12 -12 -12 -12 -12 -12 -13 -12 -13 -13 -13
-11 -11 -11 -11 -11 -11 -11 -11 -12 -12 -12 -12 -12 -12 -12 -12 -11 -12 -13 -13 -13 -13 -13 -13 -13 -13 -13 -13 -13 -13 -13 -13 -13 -13 -13 -13 -13 -14 -13 -12 -12 -13 -13 -13 -13 -13 -14 -14 -14
-11 -11 -11 -11 -11 -11 -11 -11 -11 -11 -12 -12 -12 -12 -12 -11 -12 -13 -13 -13 -13 -14 -14 -14 -14 -14 -14 -13 -13 -13 -13 -13 -14 -13 -13 -13 -13 -14 -13 -13 -13 -13 -14 -13 -14 -14 -14 -14 -14
-11 -11 -11 -11 -11 -11 -11 -11 -11 -11 -12 -12 -12 -12 -12 -13 -13 -13 -13 -13 -14 -14 -14 -14 -14 -14 -14 -13 -13 -13 -13 -14 -14 -14 -14 -14 -14 -13 -13 -13 -13 -14 -14 -14 -15 -14 -14 -15 -14
-11 -11 -11 -11 -12 -12 -11 -11 -11 -11 -12 -12 -12 -12 -13 -13 -13 -13 -13 -14 -14 -14 -14 -14 -14 -14 -14 -14 -14 -14 -14 -14 -14 -14 -14 -14 -14 -14 -14 -14 -14 -14 -14 -14 -15 -14 -14 -15 -15
-11 -12 -12 -12 -12 -11 -11 -11 -11 -12 -12 -12 -12 -13 -14 -14 -14 -14 -14 -14 -14 -15 -15 -15 -15 -15 -15 -15 -15 -15 -15 -15 -15 -15 -15 -15 -15 -15 -15 -15 -15 -15 -15 -15 -16 -16 -15 -15 -15
-12 -12 -12 -12 -12 -13 -12 -12 -13 -12 -12 -13 -13 -13 -14 -14 -14 -14 -14 -14 -14 -15 -16 -15 -15 -15 -15 -15 -15 -15 -15 -15 -16 -16 -16 -16 -15 -15 -15 -15 -15 -15 -16 -16 -16 -17 -16 -16 -17
-12 -12 -12 -12 -12 -12 -13 -13 -13 -14 -13 -13 -14 -14 -14 -15 -15 -14 -14 -15 -15 -15 -15 -15 -15 -15 -16 -16 -16 -16 -16 -16 -16 -17 -17 -16 -17 -17 -17 -17 -17 -17 -17 -17 -17 -17 -17 -18 -18
-12 -12 -12 -13 -13 -13 -13 -13 -14 -13 -13 -13 -14 -14 -15 -15 -14 -15 -15 -15 -15 -15 -15 -15 -15 -15 -15 -15 -15 -16 -16 -17 -17 -17 -17 -17 -17 -17 -17 -18 -18 -18 -18 -18 -18 -19 -19 -19 -19
-11 -13 -13 -13 -12 -12 -13 -14 -13 -13 -14 -14 -14 -15 -15 -14 -14 -15 -16 -15 -15 -16 -16 -16 -16 -16 -16 -16 -16 -17 -17 -17 -17 -17 -18 -18 -18 -18 -18 -18 -18 -19 -19 -19 -19 -19 -19 -19 -20
-12 -12 -13 -13 -13 -14 -14 -14 -13 -13 -14 -14 -14 -15 -15 -15 -15 -15 -16 -16 -16 -16 -16 -16 -16 -16 -16 -17 -17 -17 -17 -17 -17 -18 -18 -18 -18 -18 -19 -19 -19 -20 -20 -20 -20 -20 -20 -20 -20
-12 -12 -12 -12 -14 -14 -14 -13 -13 -14 -14 -14 -14 -15 -15 -15 -15 -15 -15 -16 -16 -16 -16 -16 -16 -17 -17 -17 -17 -17 -18 -18 -18 -18 -18 -18 -19 -19 -20 -20 -20 -21 -21 -21 -20 -20 -20 -21 -21
-12 -12 -13 -14 -13 -14 -14 -15 -14 -14 -14 -14 -15 -15 -15 -15 -16 -16 -16 -16 -17 -17 -17 -17 -17 -17 -18 -18 -18 -18 -18 -18 -18 -18 -19 -19 -19 -20 -21 -22 -22 -22 -22 -21 -21 -21 -21 -21 -21
-13 -12 -13 -13 -13 -14 -15 -14 -14 -14 -15 -15 -15 -16 -16 -16 -16 -16 -17 -18 -18 -18 -18 -17 -17 -18 -18 -18 -18 -19 -19 -19 -19 -19 -19 -19 -20 -20 -21 -21 -22 -22 -22 -22 -22 -22 -22 -21 -21
-12 -12 -13 -13 -13 -14 -13 -14 -14 -14 -15 -15 -16 -16 -16 -16 -17 -17 -18 -18 -18 -18 -18 -18 -18 -18 -18 -19 -19 -19 -19 -19 -19 -19 -19 -19 -20 -20 -21 -21 -21 -21 -22 -22 -22 -22 -22 -21 -21
Height
5905 5905 5905 5907 5912 5916 5915 5909 5906 5905 5904 5901 5899 5897 5895 5893 5892 5892 5890 5889 5888 5888 5887 5886 5886 5885 5888 5889 5890 5890 5891 5892 5892 5892 5892 5891 5891 5891 5892 5892 5892 5892 5892 5892 5892 5893 5893 5892 5892
5904 5905 5906 5909 5913 5916 5912 5909 5908 5906 5903 5900 5898 5896 5895 5893 5891 5890 5889 5888 5886 5886 5886 5885 5884 5883 5883 5885 5886 5886 5886 5886 5886 5886 5886 5886 5887 5888 5887 5887 5888 5887 5887 5888 5887 5887 5887 5889 5889
5904 5905 5907 5910 5916 5914 5912 5910 5908 5906 5904 5900 5898 5897 5895 5893 5892 5890 5889 5887 5885 5885 5885 5883 5882 5882 5881 5881 5881 5882 5882 5882 5882 5882 5882 5882 5883 5882 5882 5882 5883 5882 5882 5882 5883 5883 5883 5883 5883
5904 5907 5909 5913 5915 5913 5912 5910 5908 5906 5905 5901 5899 5896 5895 5893 5892 5891 5889 5887 5886 5885 5883 5882 5881 5881 5879 5878 5877 5875 5876 5877 5877 5877 5878 5878 5877 5876 5877 5877 5876 5876 5876 5876 5876 5876 5877 5877 5878
5906 5907 5910 5913 5913 5912 5910 5909 5907 5906 5904 5902 5900 5896 5894 5893 5892 5891 5889 5886 5885 5883 5881 5880 5878 5877 5876 5874 5872 5871 5871 5870 5870 5870 5872 5873 5873 5872 5870 5869 5869 5869 5869 5869 5869 5869 5870 5870 5871
5907 5909 5915 5918 5913 5912 5910 5909 5908 5907 5904 5902 5900 5897 5894 5893 5893 5892 5890 5887 5885 5882 5880 5878 5876 5873 5870 5868 5866 5866 5865 5865 5866 5867 5868 5868 5868 5866 5865 5865 5865 5865 5866 5865 5865 5864 5864 5863 5863
5907 5910 5913 5915 5913 5912 5910 5909 5908 5906 5904 5902 5900 5897 5896 5894 5893 5891 5889 5887 5884 5881 5877 5875 5872 5868 5865 5861 5861 5861 5860 5862 5864 5865 5865 5864 5863 5863 5862 5862 5861 5860 5859 5858 5859 5859 5858 5857 5856
5907 5910 5914 5914 5914 5912 5910 5909 5908 5906 5903 5901 5899 5897 5895 5894 5893 5890 5888 5886 5883 5880 5876 5873 5870 5867 5863 5861 5859 5859 5858 5859 5861 5860 5861 5861 5860 5858 5857 5856 5855 5854 5853 5853 5852 5852 5850 5848 5847
5909 5913 5915 5913 5913 5912 5910 5909 5906 5904 5902 5900 5897 5895 5894 5893 5892 5890 5888 5884 5881 5878 5875 5872 5869 5866 5862 5859 5856 5854 5855 5856 5857 5857 5857 5856 5855 5854 5852 5851 5850 5848 5847 5846 5845 5844 5843 5841 5841
5908 5912 5911 5912 5911 5910 5909 5907 5905 5904 5901 5899 5896 5893 5892 5891 5889 5889 5886 5883 5879 5876 5872 5869 5866 5864 5860 5857 5856 5852 5853 5853 5852 5851 5851 5850 5849 5848 5847 5846 5844 5842 5841 5839 5838 5837 5836 5836 5835
5908 5909 5910 5910 5909 5908 5907 5906 5904 5902 5899 5898 5895 5893 5891 5889 5887 5884 5884 5881 5878 5874 5870 5867 5864 5861 5860 5855 5852 5851 5854 5851 5849 5847 5846 5844 5843 5842 5840 5838 5836 5834 5832 5830 5830 5829 5829 5829 5828
5907 5908 5909 5909 5908 5908 5906 5904 5903 5901 5898 5896 5893 5891 5889 5886 5884 5882 5880 5878 5875 5871 5866 5862 5859 5857 5855 5853 5850 5848 5847 5846 5844 5842 5839 5838 5835 5833 5832 5830 5829 5827 5825 5823 5822 5820 5821 5820 5820
5907 5908 5908 5908 5907 5906 5904 5902 5901 5899 5896 5893 5890 5888 5886 5883 5881 5880 5877 5873 5869 5865 5861 5858 5856 5853 5852 5850 5847 5845 5843 5841 5837 5835 5832 5830 5827 5826 5824 5823 5820 5818 5817 5814 5812 5811 5809 5809 5810
5906 5907 5907 5907 5906 5904 5903 5901 5900 5897 5894 5890 5887 5883 5882 5880 5878 5874 5871 5867 5864 5860 5856 5853 5850 5848 5846 5843 5840 5838 5835 5832 5829 5827 5824 5822 5819 5817 5814 5813 5810 5809 5806 5805 5803 5800 5798 5797 5796
5905 5905 5904 5904 5903 5902 5901 5899 5896 5894 5890 5887 5885 5881 5877 5875 5870 5867 5864 5860 5857 5854 5850 5847 5845 5842 5838 5835 5832 5829 5826 5823 5820 5818 5815 5813 5810 5808 5806 5803 5801 5799 5796 5794 5792 5790 5787 5786 5784
5904 5904 5903 5902 5901 5900 5898 5896 5893 5890 5888 5884 5881 5877 5874 5869 5864 5860 5856 5853 5851 5847 5843 5840 5837 5834 5830 5826 5822 5820 5817 5815 5812 5809 5806 5803 5800 5797 5793 5792 5787 5787 5785 5782 5779 5778 5774 5773 5771
5903 5903 5901 5899 5898 5896 5895 5892 5889 5886 5883 5880 5876 5871 5867 5863 5858 5854 5850 5847 5844 5840 5837 5834 5830 5826 5821 5817 5813 5809 5806 5804 5801 5798 5795 5792 5789 5787 5784 5780 5777 5776 5772 5769 5766 5766 5764 5760 5758
5901 5900 5898 5896 5895 5892 5890 5888 5885 5882 5878 5875 5870 5865 5861 5856 5851 5847 5844 5840 5836 5832 5829 5825 5822 5817 5813 5808 5804 5800 5796 5793 5790 5786 5783 5780 5777 5774 5771 5768 5765 5762 5757 5754 5752 5749 5749 5747 5745
5900 5898 5896 5893 5891 5888 5884 5882 5878 5875 5872 5867 5862 5857 5851 5847 5843 5839 5835 5831 5827 5824 5820 5817 5813 5808 5803 5799 5795 5791 5786 5782 5778 5775 5771 5768 5765 5762 5759 5755 5753 5748 5744 5739 5736 5734 5736 5735 5732
5898 5895 5892 5889 5885 5883 5880 5876 5872 5867 5864 5858 5853 5849 5844 5839 5835 5831 5827 5823 5820 5816 5812 5808 5804 5799 5794 5789 5784 5780 5776 5771 5767 5764 5760 5756 5753 5750 5747 5744 5740 5736 5733 5730 5725 5721 5722 5721 5717
5895 5892 5888 5886 5881 5878 5875 5870 5863 5860 5855 5850 5846 5842 5837 5832 5828 5824 5821 5815 5813 5808 5804 5800 5794 5789 5784 5779 5775 5770 5765 5760 5756 5752 5747 5744 5740 5737 5733 5729 5726 5723 5720 5717 5714 5710 5709 5705 5703
5895 5887 5884 5880 5877 5876 5868 5866 5855 5853 5849 5844 5840 5836 5831 5827 5822 5819 5813 5809 5805 5801 5797 5791 5785 5779 5774 5769 5763 5758 5753 5748 5743 5738 5734 5730 5726 5722 5719 5715 5711 5708 5705 5704 5701 5699 5697 5695 5692
5888 5884 5880 5875 5871 5867 5860 5859 5853 5846 5842 5837 5831 5829 5825 5820 5815 5812 5808 5803 5798 5794 5788 5781 5774 5768 5763 5757 5750 5744 5738 5732 5727 5723 5719 5714 5710 5706 5702 5699 5697 5695 5693 5691 5689 5687 5685 5685 5683
5882 5879 5876 5871 5867 5865 5859 5857 5852 5843 5839 5833 5827 5823 5819 5815 5810 5805 5800 5796 5790 5783 5777 5770 5763 5757 5751 5744 5738 5732 5726 5719 5714 5708 5703 5699 5694 5690 5686 5683 5681 5678 5677 5677 5676 5676 5676 5676 5675
5879 5875 5875 5874 5871 5866 5855 5849 5842 5839 5833 5828 5824 5820 5814 5809 5803 5796 5792 5787 5780 5773 5767 5760 5753 5747 5740 5732 5726 5719 5713 5708 5702 5697 5691 5686 5682 5677 5672 5670 5666 5665 5665 5665 5665 5666 5666 5666 5667
5873 5872 5868 5862 5862 5858 5848 5845 5839 5834 5829 5824 5819 5814 5809 5804 5800 5792 5784 5777 5771 5765 5758 5751 5744 5737 5729 5723 5715 5709 5703 5696 5690 5684 5679 5674 5669 5665 5661 5659 5656 5655 5654 5654 5654 5656 5658 5659 5661
5870 5864 5860 5854 5852 5849 5849 5838 5834 5829 5825 5820 5815 5809 5804 5798 5792 5785 5778 5770 5763 5756 5749 5742 5736 5729 5721 5714 5706 5699 5692 5686 5680 5674 5668 5664 5659 5654 5651 5648 5646 5646 5646 5645 5647 5649 5651 5653 5655
5863 5858 5854 5851 5848 5845 5845 5835 5831 5826 5821 5815 5809 5802 5797 5790 5784 5777 5770 5762 5754 5747 5740 5734 5728 5721 5713 5706 5698 5690 5683 5677 5671 5666 5660 5654 5648 5644 5642 5640 5639 5639 5638 5639 5640 5642 5645 5649 5652
5856 5851 5849 5848 5845 5842 5840 5834 5828 5822 5816 5809 5803 5796 5790 5783 5776 5768 5761 5753 5746 5739 5733 5728 5721 5715 5707 5699 5692 5685 5677 5670 5664 5659 5653 5646 5642 5638 5636 5635 5635 5635 5635 5636 5638 5640 5642 5645 5649
5851 5849 5847 5844 5842 5838 5834 5830 5824 5817 5812 5805 5799 5791 5784 5776 5769 5762 5754 5747 5741 5734 5727 5722 5716 5709 5702 5695 5688 5679 5670 5662 5656 5651 5648 5643 5639 5636 5634 5633 5633 5633 5633 5634 5636 5638 5640 5643 5646
Wind_Speed
7 10 8 6 14 12 9 8 10 12 10 8 10 9 13 13 13 10 4 2 5 5 3 4 3 3 2 3 5 7 10 12 12 12 13 14 15 16 16 16 17 18 18 17 18 18 17 18 18
7 9 10 8 13 5 7 8 13 14 10 7 8 10 12 14 9 7 7 6 4 4 2 2 4 5 6 7 7 9 11 13 14 15 16 17 17 17 18 19 19 19 20 21 22 22 21 21 21
8 11 12 11 12 7 7 11 11 16 11 9 10 11 11 12 10 6 6 6 4 2 3 3 3 6 8 10 12 13 15 16 17 18 19 19 19 21 22 23 24 23 24 24 24 23 23 23 23
13 13 11 12 6 4 5 5 10 11 16 15 9 8 10 11 10 9 6 5 5 5 5 7 7 7 9 13 16 18 19 20 22 23 22 22 22 22 22 23 25 27 28 27 27 28 28 28 28
14 12 15 7 5 3 5 5 13 16 17 17 11 9 9 10 12 11 9 7 3 5 4 5 6 8 12 17 21 20 22 24 26 27 26 23 22 23 26 27 29 30 30 30 29 28 27 27 27
15 12 10 5 4 0 4 8 14 12 13 14 13 11 10 13 13 14 11 11 9 9 9 9 9 10 12 16 21 26 28 27 26 23 22 22 24 27 28 29 28 27 29 29 29 27 27 29 30
13 13 11 8 3 3 8 9 11 12 11 10 11 13 13 15 14 12 11 11 15 13 12 12 13 14 15 15 19 23 29 24 21 22 25 26 27 29 29 29 29 29 31 31 32 32 33 34 34
12 11 8 7 3 10 6 5 8 9 8 9 11 13 17 18 16 13 15 18 15 15 15 14 15 13 10 12 15 16 22 18 21 23 24 25 27 30 30 30 30 33 34 34 34 35 34 34 33
8 7 5 4 3 9 8 6 10 8 6 9 12 16 18 17 17 10 13 19 15 14 12 12 14 14 14 11 7 10 10 11 16 21 24 27 30 31 31 30 33 34 34 35 36 39 39 38 35
8 7 4 5 8 9 8 10 10 3 7 11 13 17 19 21 21 11 19 21 21 15 13 10 11 15 16 13 10 4 6 15 18 19 24 28 30 31 32 35 36 37 37 36 38 40 39 37 35
8 8 6 7 10 10 11 4 3 4 9 14 16 19 20 24 23 16 23 26 27 23 15 13 14 14 14 16 17 12 14 17 21 24 26 28 32 35 37 38 38 40 38 37 38 37 36 37 38
9 8 9 9 11 11 16 10 8 9 15 18 19 20 22 25 24 23 28 31 28 24 17 14 16 18 17 12 15 18 19 21 24 28 30 33 34 36 38 39 38 37 36 40 40 41 40 41 41
15 12 14 15 14 16 14 10 12 15 18 20 20 25 25 23 29 27 33 32 28 29 21 18 20 18 15 14 18 17 20 22 22 25 29 34 37 39 38 38 41 40 39 41 43 41 42 43 42
16 17 16 15 18 19 12 11 15 19 22 21 23 26 25 30 34 35 33 34 29 30 25 23 19 16 24 26 27 27 25 24 27 29 32 33 33 35 36 40 42 44 42 43 43 46 46 49 51
8 11 12 15 15 12 14 15 16 19 22 21 23 26 30 37 36 35 36 34 27 29 23 21 21 30 32 32 32 28 24 26 29 33 32 35 38 40 43 44 45 48 49 50 51 51 51 56 55
7 7 9 12 12 10 12 14 17 20 23 26 29 31 35 30 35 33 33 30 32 26 31 28 36 36 38 37 36 33 31 31 32 34 40 41 44 46 48 49 48 47 54 48 47 52 53 54 56
8 8 12 13 15 17 18 18 20 23 27 31 34 34 33 39 37 30 30 31 31 32 31 38 37 36 36 34 35 35 36 37 40 40 42 45 45 46 49 50 56 57 51 61 61 59 59 66 62
14 14 17 19 21 22 23 24 26 28 30 30 33 35 38 37 33 31 31 32 32 32 33 34 36 33 34 32 32 31 32 34 38 41 42 46 44 49 52 49 55 58 64 59 60 63 64 61 62
20 23 24 24 23 22 22 23 25 26 28 30 30 33 34 33 32 31 34 34 31 33 34 38 37 33 34 32 35 35 34 37 39 42 44 45 47 51 54 56 61 60 62 63 65 63 62 60 64
22 24 21 19 20 21 24 27 28 30 31 34 34 34 35 34 33 32 30 31 29 32 35 36 36 39 37 37 36 36 36 39 40 42 44 46 48 50 53 54 56 59 59 60 63 65 66 65 65
11 15 21 25 27 26 29 34 32 36 34 34 32 30 30 28 28 29 26 28 34 39 36 38 40 39 38 38 39 39 40 41 43 45 46 48 50 51 53 55 57 59 60 61 63 66 66 66 66
14 21 23 25 28 24 33 27 35 27 29 30 33 30 25 29 29 25 33 33 36 38 37 37 39 40 41 42 42 42 42 44 45 47 48 50 51 53 55 58 59 60 61 60 60 60 61 62 63
19 24 27 32 33 32 30 33 28 34 31 31 30 25 30 26 27 29 32 34 33 40 42 40 42 43 42 43 43 45 45 46 47 47 47 48 49 49 52 53 54 54 55 56 57 57 57 54 50
24 27 29 32 32 24 29 32 25 29 31 31 28 28 27 26 30 30 31 32 36 40 43 43 44 45 45 46 47 47 47 48 47 48 49 51 52 52 53 53 52 53 52 51 49 46 44 44 43
25 27 24 23 22 23 32 31 28 27 28 27 27 26 24 28 33 29 33 41 41 41 43 44 45 45 47 47 47 46 46 47 48 47 45 44 42 40 40 40 40 40 39 37 38 39 39 36 32
32 30 26 32 22 21 28 18 25 23 25 25 27 25 30 30 32 42 43 42 41 42 43 43 45 46 47 46 44 45 46 46 43 37 34 35 35 35 35 34 35 34 34 33 34 32 30 27 23
31 33 34 31 20 17 17 23 21 24 24 24 27 29 32 36 38 39 41 42 43 42 43 44 44 43 42 41 42 42 38 33 34 35 35 34 35 35 33 31 29 28 22 27 27 22 22 20 16
31 32 25 17 16 11 12 18 23 24 26 28 30 31 34 36 38 40 42 43 43 42 41 40 39 38 38 39 36 32 33 33 33 33 34 35 34 28 23 20 20 21 19 20 17 18 18 14 10
33 26 18 12 11 12 12 19 24 26 29 31 28 30 39 40 40 42 43 41 39 37 37 35 34 34 34 28 30 32 33 34 33 31 30 24 19 15 13 12 10 13 12 10 10 11 12 12 17
22 17 11 12 14 16 18 20 25 29 28 28 25 37 38 39 37 37 36 36 35 33 32 29 29 26 25 28 30 32 33 32 28 19 13 14 12 9 7 5 4 4 4 5 8 9 9 11 13
Wind_Direction
158 165 154 100 57 80 76 54 49 36 38 34 41 55 63 62 63 82 112 45 76 68 117 140 174 157 197 241 258 271 261 254 248 239 236 234 236 238 243 244 242 245 248 248 250 254 255 255 255
143 161 170 124 94 105 63 60 64 56 38 41 50 56 67 67 69 72 78 78 103 129 202 178 186 178 203 222 233 241 237 235 230 228 227 229 234 237 240 246 252 251 254 257 254 253 253 257 260
125 140 160 152 121 108 90 84 90 74 67 48 50 65 60 59 53 40 41 40 30 337 303 253 229 227 224 227 235 242 241 237 232 234 237 239 240 244 248 248 251 250 251 249 252 253 252 251 252
126 128 139 118 154 131 77 73 85 63 62 58 44 32 62 61 54 48 34 26 18 327 307 285 281 274 257 244 242 241 241 242 242 243 246 243 241 243 248 248 246 246 249 251 254 256 258 258 258
131 135 135 126 147 110 101 92 64 47 35 42 47 36 45 49 51 46 43 36 346 302 333 289 290 283 277 267 252 243 244 243 240 239 240 239 241 241 238 241 244 247 250 252 255 257 260 264 266
132 146 106 155 161 314 25 49 45 49 32 26 21 18 21 33 44 42 26 27 12 352 326 320 327 316 289 269 257 245 249 241 239 235 236 239 242 244 246 249 254 259 263 264 264 265 265 264 265
128 142 164 143 162 23 34 30 48 31 19 8 9 8 6 20 25 28 12 18 16 3 343 348 343 329 308 278 251 254 244 234 234 246 247 246 248 252 258 263 264 265 265 266 268 267 266 268 270
149 147 143 172 134 332 331 27 20 16 3 355 345 351 355 10 19 20 32 6 356 1 1 10 6 351 343 313 260 262 237 226 248 251 254 258 262 261 262 266 267 267 266 269 270 269 269 269 271
164 118 164 203 312 322 318 339 355 351 337 339 336 344 351 1 6 18 8 1 354 348 349 360 7 355 353 352 285 266 255 236 252 258 264 268 269 271 272 274 273 270 270 273 276 276 275 275 279
185 167 217 261 298 300 310 319 328 310 320 337 336 341 340 346 342 349 2 355 348 332 336 338 350 355 354 329 326 179 279 250 254 266 269 277 277 275 271 271 272 272 271 274 273 272 273 276 277
206 226 243 279 284 294 315 309 217 262 308 321 327 330 341 336 331 342 360 345 342 334 321 319 327 331 332 325 320 311 257 263 266 268 273 272 274 274 273 274 278 270 267 266 267 268 271 272 273
223 248 252 290 287 291 306 291 253 286 301 313 315 323 328 331 331 322 334 330 331 335 315 307 321 336 327 315 303 288 279 270 270 269 267 265 266 266 268 271 271 272 269 267 267 269 267 269 271
237 254 271 285 290 298 308 294 295 300 307 305 312 316 315 319 323 318 319 319 318 330 313 303 316 317 321 304 309 310 287 267 274 274 275 271 270 269 270 272 270 268 268 267 268 272 275 274 272
237 254 269 279 292 299 318 318 311 307 302 303 306 307 310 311 313 313 311 313 312 321 313 302 307 303 312 313 311 305 295 280 271 274 279 273 273 271 268 268 269 272 270 270 272 274 280 279 275
242 263 280 291 298 311 316 312 308 309 303 302 299 303 308 312 311 308 306 309 305 314 309 297 300 307 308 309 311 304 285 267 266 268 267 267 264 264 266 270 269 269 269 277 269 274 276 277 274
310 297 283 289 294 293 290 300 306 302 301 299 298 300 301 313 312 308 307 304 305 304 301 301 310 306 304 304 303 294 285 276 274 272 264 267 262 262 264 272 261 269 270 271 272 269 279 274 270
288 285 287 286 286 293 293 296 294 293 292 293 294 296 300 305 308 303 300 299 304 306 299 298 306 306 302 298 291 283 277 274 271 270 266 269 267 270 262 266 276 273 268 267 270 272 269 275 274
280 281 285 288 291 289 287 288 287 287 291 294 294 293 293 302 306 303 300 299 299 299 299 304 306 303 302 297 292 287 282 276 273 271 272 269 268 268 270 265 268 276 272 271 269 272 282 276 278
263 280 282 284 287 290 298 306 305 298 296 298 300 302 305 308 304 300 298 299 293 293 302 303 303 299 301 296 294 292 284 280 277 275 274 272 272 273 271 270 267 275 277 279 281 280 278 280 280
272 276 278 299 305 306 304 306 307 308 306 304 306 306 304 302 300 298 296 290 295 300 300 304 305 302 300 298 295 290 287 282 280 278 276 276 275 274 274 273 272 273 276 277 279 281 281 282 285
285 296 302 307 306 301 304 309 305 313 309 305 305 306 306 306 308 306 274 281 302 302 303 300 299 301 300 296 295 292 286 281 279 281 279 278 277 277 276 275 275 275 276 276 278 279 279 282 283
302 319 321 323 322 315 319 316 317 317 313 309 310 310 305 306 303 299 295 307 304 306 304 298 301 300 299 297 295 291 288 287 287 287 285 282 279 277 274 274 273 273 274 275 276 278 278 280 281
303 309 317 318 318 322 318 323 306 309 317 315 318 312 310 310 308 304 302 298 302 303 301 303 304 304 303 302 302 302 301 300 297 294 290 287 285 282 279 278 276 274 273 273 274 274 275 277 279
311 313 318 328 331 340 297 310 300 304 316 314 309 309 313 312 307 303 303 308 303 303 303 305 306 307 306 305 304 304 304 301 299 298 297 294 291 288 284 281 277 275 273 272 271 271 273 276 279
317 321 322 312 303 301 295 311 307 313 315 314 309 311 312 314 311 282 313 307 305 306 308 309 308 308 308 308 307 305 303 300 298 295 292 290 289 288 286 283 280 276 274 270 269 270 271 273 275
313 319 317 316 306 296 308 305 311 319 318 313 310 310 310 312 306 308 311 310 309 310 308 309 310 310 309 308 306 304 302 301 300 298 298 297 296 292 288 282 278 275 271 268 266 267 266 267 266
314 318 319 317 318 330 289 311 323 328 323 320 316 313 312 311 310 309 308 308 309 309 309 310 311 311 310 309 307 307 307 307 305 305 303 301 297 294 289 284 277 271 271 264 264 260 256 253 252
319 319 323 321 328 326 311 314 328 327 323 320 315 311 315 314 313 312 311 311 312 311 312 313 313 314 313 312 313 313 311 308 306 305 302 302 301 297 289 282 273 265 258 260 251 248 246 246 237
316 322 329 337 345 337 325 318 322 325 326 323 318 316 318 317 317 319 318 316 315 314 313 315 316 317 318 321 320 318 314 310 307 308 310 307 310 308 303 294 280 264 255 252 249 249 253 238 222
318 326 345 353 342 340 332 327 327 328 325 321 311 315 318 321 325 326 329 329 324 320 320 321 322 326 333 332 329 323 318 315 318 324 332 338 342 337 332 334 319 280 257 233 238 245 243 214 215